Flag for South Africa Weather past 2 weeks in Stellenbosch, South Africa

Now
57 °F

Scattered clouds.


Feels Like: 57 °F
Forecast: 38 / 69 °F
Wind: 3 mph from East

Location: Cape Town International Airport

Current Time: Aug 29, 2014 at 12:59:23 PM

Latest Report: Aug 29, 2014 at 12:00 PM


Visibility: N/A

Pressure: 30.48 "Hg

Humidity: 63%

Dew point: 45 °F

Location of StellenboschLocation

Historic Weather in Stellenbosch — Graph

°F

Stellenbosch temperature yesterday

Maximum temperature yesterday: 55 °F (at 4:00 PM)
Minimum temperature yesterday: 45 °F (at 11:00 PM)
Average temperature yesterday: 51 °F

Past Weeks' High & Low Weather Summary

 TemperatureHumidityPressure
High84 °F (Aug 17, 1:00 PM)94% (Aug 15, 3:00 AM)30.48 "Hg (Aug 15, 3:00 AM)
Low39 °F (Aug 24, 7:00 AM)31% (Aug 17, 1:00 PM)29.80 "Hg (Aug 17, 11:00 PM)
Average57 °F73%30.08 "Hg
* Reported Aug 14 12:00 Noon — Aug 29 12:00 Noon, Stellenbosch, Weather by CustomWeather, © 2014

Note: Actual official high and low records may vary slightly from our data, if they occured in-between our weather recording intervals... More about our weather records

Advertising

Stellenbosch weather history for previous 24 hours

 ConditionsComfort  
Time TempWeatherWind HumidityBarometerVisibility
12:00 PM
Aug 29
57 °FScattered clouds.3 mph63%30.48 "HgN/A
11:00 AM55 °FPartly sunny.2 mph72%30.48 "HgN/A
10:00 AM54 °FScattered clouds.2 mph72%30.48 "HgN/A
9:00 AM48 °FPassing clouds.8 mph82%30.48 "HgN/A
8:00 AM46 °FScattered clouds.8 mph87%30.45 "HgN/A
7:00 AM45 °FScattered clouds.7 mph87%30.42 "HgN/A
6:00 AM45 °FPassing clouds.9 mph87%30.39 "HgN/A
5:00 AM45 °FPassing clouds.7 mph87%30.39 "HgN/A
4:00 AM45 °FPassing clouds.7 mph87%30.39 "HgN/A
3:00 AM45 °FPassing clouds.9 mph93%30.39 "HgN/A
2:00 AM45 °FPassing clouds.12 mph87%30.36 "HgN/A
1:00 AM46 °FLight rain. Passing clouds.12 mph82%30.36 "HgN/A
12:00 AM45 °FPassing clouds.8 mph87%30.33 "HgN/A
11:00 PM
Aug 28
45 °FPassing clouds.8 mph81%30.33 "HgN/A
10:00 PM46 °FPassing clouds.5 mph76%30.30 "HgN/A
9:00 PM46 °FClear.5 mph82%30.27 "Hg10 mi
8:00 PM50 °FPassing clouds.8 mph67%30.24 "HgN/A
7:00 PM48 °FPassing clouds.7 mph76%30.21 "HgN/A
6:00 PM50 °FSprinkles. Passing clouds.17 mph67%30.18 "HgN/A
5:00 PM50 °FPassing clouds.8 mph62%30.15 "HgN/A
4:00 PM55 °FPartly sunny.15 mph55%30.12 "HgN/A
3:00 PM50 °FScattered clouds.16 mph71%30.12 "HgN/A
2:00 PM54 °FScattered clouds.20 mph47%30.07 "HgN/A
12:00 PM54 °FScattered clouds.24 mph41%30.04 "HgN/A
Weather by CustomWeather, © 2014

See weather overviewHow to use our weather pages